Chignik, AK

8:01 AM AKST on February 27, 2017 (GMT -0900)
Chignik

Weather History for PAJC - January, 2014

Change the Weather History Date:

Monday, January 20, 2014

  Actual Average Record
Temperature  
Mean Temperature 40 °F -  
Max Temperature 44 °F 33 °F 95 °F (2004)
Min Temperature 37 °F 26 °F 15 °F (2012)
Degree Days  
Heating Degree Days 24    
Moisture  
Dew Point 35 °F    
Average Humidity 80    
Maximum Humidity 87    
Minimum Humidity 70    
Precipitation  
Precipitation 0.45 in - - ()
Sea Level Pressure  
Sea Level Pressure 29.04 in    
Wind  
Wind Speed 17 mph (SE)    
Max Wind Speed 30 mph    
Max Gust Speed 51 mph    
Visibility 8 miles    
Events      
Averages and records for this station are not official NWS values.
T = Trace of Precipitation, MM = Missing Value Source: NWS Daily Summary

Daily Weather History Graph

Daily Weather History Graph

Search for Another Location

Airport or City:

Trip Planner

Search our weather history database for the weather conditions in past years. The results will help you decide how hot, cold, wet, or windy it might be!

Date:

Astronomy

Jan. 20, 2014 Rise Set
Actual Time 9:49 AM AKST 5:40 PM AKST
Civil Twilight 9:05 AM AKST 6:24 PM AKST
Nautical Twilight 8:18 AM AKST 7:11 PM AKST
Astronomical Twilight 7:33 AM AKST 7:55 PM AKST
Moon 11:29 PM AKST (1/20) 10:57 AM AKST (1/20)
Length of Visible Light 9h 18m
Length of Day
7h 50m
Waning Gibbous, 81% of the Moon is Illuminated
Jan 20
Waning Gibbous
Jan 23
Last Quarter
Jan 30
New
Feb 6
First Quarter
Feb 14
Full

Hourly Weather History & Observations

Time (AKST) Temp. Windchill Dew Point Humidity Pressure Visibility Wind Dir Wind Speed Gust Speed Precip Events Conditions
12:16 AM 42.8 °F 35.1 °F 37.4 °F 81% 29.02 in 10.0 mi SE 16.1 mph 29.9 mph N/A   Overcast
12:36 AM 42.8 °F 34.8 °F 37.4 °F 81% 29.02 in 10.0 mi SSE 17.3 mph 23.0 mph N/A   Overcast
12:56 AM 42.8 °F 35.1 °F 37.4 °F 81% 29.02 in 9.0 mi SE 16.1 mph 25.3 mph N/A   Overcast
1:16 AM 42.8 °F 34.8 °F 37.4 °F 81% 29.01 in 8.0 mi ESE 17.3 mph 29.9 mph 0.01 in   Overcast
1:36 AM 42.8 °F 33.3 °F 37.4 °F 81% 29.02 in 9.0 mi SE 24.2 mph 41.4 mph 0.01 in   Overcast
1:56 AM 42.8 °F 35.8 °F 35.6 °F 76% 29.02 in 7.0 mi ESE 13.8 mph 48.3 mph 0.02 in   Overcast
2:16 AM 42.8 °F 35.4 °F 37.4 °F 81% 29.02 in 10.0 mi SE 15.0 mph 26.5 mph N/A   Overcast
2:36 AM 42.8 °F 34.5 °F 37.4 °F 81% 29.03 in 10.0 mi SSE 18.4 mph 43.7 mph N/A   Overcast
2:56 AM 42.8 °F 34.5 °F 37.4 °F 81% 29.04 in 10.0 mi SSE 18.4 mph 36.8 mph N/A   Mostly Cloudy
3:16 AM 42.8 °F 33.8 °F 37.4 °F 81% 29.03 in 10.0 mi SE 21.9 mph 35.7 mph N/A   Overcast
3:36 AM 42.8 °F 34.3 °F 37.4 °F 81% 29.04 in 10.0 mi ESE 19.6 mph 41.4 mph 0.01 in   Overcast
3:56 AM 42.8 °F 33.8 °F 37.4 °F 81% 29.04 in 10.0 mi SE 21.9 mph 33.4 mph 0.01 in   Overcast
4:16 AM 44.6 °F 37.4 °F 37.4 °F 76% 29.04 in 10.0 mi ESE 16.1 mph 29.9 mph N/A   Overcast
4:36 AM 44.6 °F 36.9 °F 35.6 °F 71% 29.05 in 10.0 mi ESE 18.4 mph 36.8 mph N/A   Overcast
4:56 AM 44.6 °F 38.8 °F 35.6 °F 71% 29.04 in 10.0 mi East 11.5 mph 39.1 mph N/A   Overcast
5:16 AM 44.6 °F 37.2 °F 35.6 °F 71% 29.04 in 10.0 mi ESE 17.3 mph 28.8 mph N/A   Overcast
5:36 AM 42.8 °F 35.1 °F 35.6 °F 76% 29.03 in 10.0 mi ESE 16.1 mph 32.2 mph N/A   Overcast
5:56 AM 42.8 °F 35.4 °F 37.4 °F 81% 29.02 in 10.0 mi ESE 15.0 mph 42.6 mph N/A   Overcast
6:16 AM 42.8 °F 34.8 °F 37.4 °F 81% 29.02 in 10.0 mi SE 17.3 mph 38.0 mph N/A   Overcast
6:36 AM 44.6 °F 36.9 °F 37.4 °F 76% 29.01 in 10.0 mi ESE 18.4 mph 39.1 mph N/A   Overcast
6:56 AM 42.8 °F 33.3 °F 37.4 °F 81% 29.01 in 9.0 mi ESE 24.2 mph 36.8 mph N/A   Overcast
7:16 AM 42.8 °F 33.3 °F 37.4 °F 81% 29.00 in 10.0 mi SE 24.2 mph 34.5 mph N/A   Overcast
7:36 AM 42.8 °F 34.5 °F 37.4 °F 81% 29.00 in 9.0 mi ESE 18.4 mph 41.4 mph N/A   Overcast
7:56 AM 42.8 °F 34.8 °F 37.4 °F 81% 29.00 in 8.0 mi ESE 17.3 mph 42.6 mph 0.02 in   Overcast
8:16 AM 42.8 °F 34.5 °F 37.4 °F 81% 28.99 in 9.0 mi ESE 18.4 mph 35.7 mph 0.02 in   Overcast
8:36 AM 42.8 °F 34.0 °F 37.4 °F 81% 28.99 in 5.0 mi ESE 20.7 mph 41.4 mph 0.04 in   Overcast
8:56 AM 42.8 °F 34.0 °F 37.4 °F 81% 28.98 in 6.0 mi ESE 20.7 mph 35.7 mph 0.08 in   Overcast
9:16 AM 42.8 °F 35.4 °F 37.4 °F 81% 28.98 in 4.0 mi ESE 15.0 mph 36.8 mph 0.04 in   Overcast
9:36 AM 42.8 °F 33.5 °F 39.2 °F 87% 28.98 in 5.0 mi ESE 23.0 mph 47.2 mph 0.08 in   Overcast
9:56 AM 42.8 °F 32.3 °F 39.2 °F 87% 28.98 in 5.0 mi ESE 29.9 mph 42.6 mph 0.10 in   Overcast
10:16 AM 42.8 °F 32.3 °F 39.2 °F 87% 28.98 in 7.0 mi ESE 29.9 mph 50.6 mph 0.02 in   Overcast
10:36 AM 42.8 °F 33.8 °F 37.4 °F 81% 28.99 in 3.0 mi East 21.9 mph 38.0 mph 0.03 in   Overcast
10:56 AM 42.8 °F 32.9 °F 39.2 °F 87% 28.99 in 5.0 mi ESE 26.5 mph 43.7 mph 0.05 in   Overcast
11:16 AM 42.8 °F 34.0 °F 39.2 °F 87% 28.99 in 3.0 mi ESE 20.7 mph 31.1 mph 0.04 in   Overcast
11:36 AM 42.8 °F 34.8 °F 39.2 °F 87% 28.98 in 4.0 mi SE 17.3 mph 32.2 mph 0.06 in   Overcast
11:56 AM 42.8 °F 34.3 °F 39.2 °F 87% 28.97 in 3.0 mi SE 19.6 mph 34.5 mph 0.08 in   Overcast
12:16 PM 42.8 °F 35.1 °F 39.2 °F 87% 28.97 in 5.0 mi SE 16.1 mph 32.2 mph 0.01 in   Overcast
12:36 PM 42.8 °F 35.8 °F 39.2 °F 87% 28.97 in 2.0 mi SE 13.8 mph 46.0 mph 0.01 in   Overcast
12:56 PM 42.8 °F 33.8 °F 39.2 °F 87% 28.96 in 2.5 mi SE 21.9 mph 39.1 mph 0.03 in   Overcast
1:16 PM 42.8 °F 34.5 °F 37.4 °F 81% 28.97 in 7.0 mi SE 18.4 mph 33.4 mph 0.01 in   Overcast
1:36 PM 42.8 °F 34.3 °F 33.8 °F 70% 28.98 in 8.0 mi SSE 19.6 mph 34.5 mph 0.01 in   Overcast
1:56 PM 39.2 °F 28.7 °F 33.8 °F 81% 29.01 in 4.0 mi SSE 23.0 mph 34.5 mph 0.01 in   Overcast
2:16 PM 39.2 °F 30.2 °F 33.8 °F 81% 29.02 in 5.0 mi SSE 17.3 mph 35.7 mph N/A   Overcast
2:36 PM 39.2 °F 30.8 °F 33.8 °F 81% 29.03 in 5.0 mi SSE 15.0 mph 31.1 mph 0.01 in   Overcast
2:56 PM 39.2 °F 29.8 °F 33.8 °F 81% 29.03 in 7.0 mi SE 18.4 mph 33.4 mph 0.01 in   Overcast
3:16 PM 39.2 °F 30.8 °F 35.6 °F 87% 29.03 in 8.0 mi SE 15.0 mph 34.5 mph 0.01 in   Overcast
3:36 PM 39.2 °F 30.5 °F 33.8 °F 81% 29.05 in 7.0 mi SE 16.1 mph 25.3 mph 0.01 in   Overcast
3:56 PM 39.2 °F 30.8 °F 33.8 °F 81% 29.05 in 5.0 mi SSE 15.0 mph 27.6 mph 0.01 in   Overcast
4:16 PM 39.2 °F 30.5 °F 33.8 °F 81% 29.06 in 8.0 mi South 16.1 mph 25.3 mph 0.01 in   Overcast
4:36 PM 39.2 °F 33.0 °F 33.8 °F 81% 29.07 in 8.0 mi SSE 9.2 mph 39.1 mph 0.01 in   Overcast
4:56 PM 39.2 °F 30.5 °F 33.8 °F 81% 29.07 in 9.0 mi SSE 16.1 mph 33.4 mph 0.01 in   Overcast
5:16 PM 39.2 °F 30.2 °F 33.8 °F 81% 29.08 in 10.0 mi SSE 17.3 mph 29.9 mph N/A   Overcast
5:36 PM 39.2 °F 29.6 °F 33.8 °F 81% 29.09 in 10.0 mi South 19.6 mph 31.1 mph N/A   Overcast
5:56 PM 39.2 °F 28.7 °F 33.8 °F 81% 29.09 in 8.0 mi SSE 23.0 mph 27.6 mph N/A   Overcast
6:16 PM 39.2 °F 30.8 °F 33.8 °F 81% 29.10 in 10.0 mi SSE 15.0 mph 23.0 mph 0.01 in   Overcast
6:36 PM 41.0 °F 32.5 °F 32.0 °F 70% 29.11 in 10.0 mi SE 17.3 mph 28.8 mph 0.01 in   Overcast
6:56 PM 39.2 °F 31.6 °F 33.8 °F 81% 29.12 in 10.0 mi SE 12.7 mph 25.3 mph 0.01 in   Overcast
7:16 PM 39.2 °F 33.0 °F 32.0 °F 75% 29.12 in 10.0 mi SSE 9.2 mph 20.7 mph N/A   Overcast
7:36 PM 39.2 °F 30.8 °F 33.8 °F 81% 29.13 in 10.0 mi SE 15.0 mph 28.8 mph N/A   Overcast
7:56 PM 39.2 °F 31.2 °F 33.8 °F 81% 29.13 in 10.0 mi SSE 13.8 mph 24.2 mph N/A   Overcast
8:16 PM 37.4 °F 28.2 °F 33.8 °F 87% 29.13 in 9.0 mi SSE 16.1 mph 25.3 mph 0.01 in   Overcast
8:36 PM 39.2 °F 30.5 °F 30.2 °F 70% 29.13 in 10.0 mi South 16.1 mph 24.2 mph 0.01 in   Mostly Cloudy
8:56 PM 39.2 °F 32.0 °F 32.0 °F 75% 29.13 in 10.0 mi SE 11.5 mph 21.9 mph 0.01 in   Overcast
9:16 PM 39.2 °F 35.9 °F 32.0 °F 75% 29.14 in 10.0 mi SW 4.6 mph - N/A   Overcast
9:36 PM 39.2 °F 35.9 °F 30.2 °F 70% 29.13 in 10.0 mi ESE 4.6 mph - N/A   Overcast
9:56 PM 37.4 °F - 32.0 °F 81% 29.13 in 10.0 mi Calm Calm - N/A   Overcast
10:16 PM 37.4 °F 34.9 °F 32.0 °F 81% 29.14 in 10.0 mi South 3.5 mph - N/A   Mostly Cloudy
10:36 PM 37.4 °F 30.3 °F 30.2 °F 75% 29.13 in 10.0 mi South 10.4 mph - N/A   Mostly Cloudy
10:56 PM 37.4 °F - 30.2 °F 75% 29.14 in 10.0 mi Calm Calm - N/A   Overcast
11:16 PM 37.4 °F 32.1 °F 30.2 °F 75% 29.14 in 10.0 mi ESE 6.9 mph - N/A   Overcast
11:36 PM 37.4 °F 34.9 °F 30.2 °F 75% 29.14 in 10.0 mi ESE 3.5 mph - N/A   Overcast
11:56 PM 37.4 °F 33.8 °F 32.0 °F 81% 29.14 in 10.0 mi ESE 4.6 mph - N/A   Overcast